SENTINEL-1A

Last updated on Wed Mar 11 2026 00:02:34 GMT+0000 (Coordinated Universal Time)

1 39634U 14016A 26069.55609125 .00000379 00000+0 90148-4 0 9997 2 39634 98.1822 78.5142 0001336 82.8469 277.2882 14.59199205635638
UTC large
Height (km)
Speed (km/s)
/
Latitude / Longitude
Inclination (degrees)
Orbital Period (minutes)
Azimuth
Elevation
Range (km)
Doppler Factor

Next 0 passes for location: London (51.5072 / 0.1276)

Sorry there are no passes over London.